Weather History for KMCO - February, 2014

Change the Weather History Date:

Tuesday, February 11, 2014

  Actual Average Record
Temperature  
Mean Temperature 67 °F 62 °F  
Max Temperature 82 °F 73 °F 88 °F (1921)
Min Temperature 52 °F 52 °F 29 °F (1947)
Degree Days  
Heating Degree Days 0 5  
Month to date heating degree days 20 55  
Since 1 July heating degree days 311 439  
Cooling Degree Days 2 2  
Month to date cooling degree days 50 22  
Year to date cooling degree days 95 67  
Growing Degree Days 17 (Base 50)    
Moisture  
Dew Point 54 °F    
Average Humidity 69    
Maximum Humidity 96    
Minimum Humidity 42    
Precipitation  
Precipitation 0.00 in 0.09 in 1.16 in (1892)
Month to date precipitation 0.72 0.91  
Year to date precipitation 3.64 3.26  
Sea Level Pressure  
Sea Level Pressure 30.05 in    
Wind  
Wind Speed 6 mph (ENE)    
Max Wind Speed 17 mph    
Max Gust Speed 30 mph    
Visibility 10 miles    
Events      
T = Trace of Precipitation, MM = Missing Value Source: NWS Daily Summary

Daily Weather History Graph

Daily Weather History Graph

Search for Another Location

Airport or City:

Trip Planner

Search our weather history database for the weather conditions in past years. The results will help you decide how hot, cold, wet, or windy it might be!

Date:

Astronomy

Feb. 11, 2014 Rise Set
Actual Time 7:06 AM EST 6:12 PM EST
Civil Twilight 6:42 AM EST 6:37 PM EST
Nautical Twilight 6:14 AM EST 7:04 PM EST
Astronomical Twilight 5:46 AM EST 7:32 PM EST
Moon 3:38 PM EST (2/11) 4:35 AM EST (2/11)
Length of Visible Light 11h 54m
Length of Day
11h 06m
Waxing Gibbous, 90% of the Moon is Illuminated
Feb 11
Waxing Gibbous
Feb 14
Full
Feb 22
Last Quarter
Mar 1
New
Mar 8
First Quarter

Hourly Weather History & Observations

Time (EST) Temp. Heat Index Dew Point Humidity Pressure Visibility Wind Dir Wind Speed Gust Speed Precip Events Conditions
12:53 AM 55.9 °F - 51.1 °F 84% 30.09 in 10.0 mi Calm Calm - N/A   Clear
1:53 AM 54.0 °F - 50.0 °F 86% 30.08 in 10.0 mi Calm Calm - N/A   Clear
2:53 AM 52.0 °F - 50.0 °F 93% 30.06 in 8.0 mi Calm Calm - N/A   Clear
3:53 AM 54.0 °F - 50.0 °F 86% 30.06 in 10.0 mi Calm Calm - N/A   Clear
4:53 AM 53.1 °F - 48.9 °F 86% 30.05 in 10.0 mi Calm Calm - N/A   Clear
5:53 AM 55.0 °F - 50.0 °F 83% 30.06 in 10.0 mi Calm Calm - N/A   Partly Cloudy
6:53 AM 57.0 °F - 50.0 °F 77% 30.07 in 10.0 mi Calm Calm - N/A   Mostly Cloudy
7:53 AM 57.9 °F - 50.0 °F 75% 30.08 in 10.0 mi Calm Calm - N/A   Scattered Clouds
8:53 AM 66.0 °F - 52.0 °F 60% 30.09 in 10.0 mi East 4.6 mph - N/A   Partly Cloudy
9:53 AM 72.0 °F - 48.0 °F 43% 30.09 in 10.0 mi ESE 9.2 mph - N/A   Scattered Clouds
10:53 AM 75.9 °F - 53.1 °F 45% 30.08 in 10.0 mi SE 9.2 mph - N/A   Scattered Clouds
11:53 AM 79.0 °F - 57.9 °F 48% 30.07 in 10.0 mi South 9.2 mph 17.3 mph N/A   Scattered Clouds
12:53 PM 78.1 °F - 57.0 °F 48% 30.04 in 10.0 mi South 8.1 mph - N/A   Scattered Clouds
1:53 PM 79.0 °F - 54.0 °F 42% 30.02 in 10.0 mi SSE 8.1 mph - N/A   Mostly Cloudy
2:53 PM 81.0 °F 80.8 °F 55.9 °F 42% 30.00 in 10.0 mi SSE 5.8 mph - N/A   Mostly Cloudy
3:53 PM 80.1 °F 80.1 °F 55.0 °F 42% 29.99 in 10.0 mi Calm Calm - N/A   Scattered Clouds
4:39 PM 73.4 °F - 57.2 °F 57% 30.00 in 10.0 mi ENE 16.1 mph - N/A   Scattered Clouds
4:53 PM 73.9 °F - 57.0 °F 55% 30.00 in 10.0 mi ENE 15.0 mph - N/A   Mostly Cloudy
5:53 PM 71.1 °F - 57.0 °F 61% 30.02 in 10.0 mi ENE 13.8 mph - N/A   Scattered Clouds
6:53 PM 68.0 °F - 55.9 °F 65% 30.04 in 10.0 mi NE 13.8 mph - N/A   Mostly Cloudy
7:08 PM 66.2 °F - 55.4 °F 68% 30.05 in 10.0 mi NNE 15.0 mph - N/A   Mostly Cloudy
7:53 PM 66.0 °F - 55.9 °F 70% 30.06 in 10.0 mi NNE 11.5 mph - N/A   Mostly Cloudy
8:09 PM 64.4 °F - 55.4 °F 73% 30.06 in 10.0 mi NNE 10.4 mph - N/A   Scattered Clouds
8:47 PM 64.4 °F - 55.4 °F 73% 30.07 in 10.0 mi NNE 10.4 mph - N/A   Mostly Cloudy
8:53 PM 64.0 °F - 55.9 °F 75% 30.07 in 10.0 mi NNE 11.5 mph - N/A   Mostly Cloudy
9:53 PM 63.0 °F - 57.0 °F 81% 30.08 in 10.0 mi North 11.5 mph - N/A   Mostly Cloudy
10:53 PM 64.0 °F - 57.0 °F 78% 30.07 in 10.0 mi NNE 10.4 mph - N/A   Mostly Cloudy
11:53 PM 64.0 °F - 57.0 °F 78% 30.06 in 10.0 mi NE 8.1 mph - N/A   Overcast